Tracking 18032 objects as of 25-March-2017
HD Live streaming from Space Station
objects crossing your sky now

GLOBALSTAR M086

Track GLOBALSTAR M086 now!
10-day predictions
GLOBALSTAR M086 is classified as:


NORAD ID: 38045
Int'l Code: 2011-080F
Perigee: 1,415.1 km
Apogee: 1,416.2 km
Inclination: 52.0 °
Period: 114.0 minutes
Semi major axis: 7786 km
RCS: 4.511 m2 (large)
Launch date: December 28, 2011
Source: Globalstar (GLOB)
Launch site: TYURATAM MISSILE AND SPACE COMPLEX (TTMTR)
Your satellite tracking list
Your tracking list is empty





NASA's NSSDC Master Catalog

Two Line Element Set (TLE):
1 38045U 11080F   17081.77135251 -.00000102 +00000-0 +13109-4 0  9990
2 38045 051.9888 160.9361 0000738 076.2724 076.1666 12.63505417243637
Source of the keplerian elements: AFSPC